| time (UTC) | temp C | wind direction | speed KPH | gust KPH | rain 1hr cm | rain 24hr cm | rain mn cm | humidity % | barometer mb |
| 20260509184522 | 17 | 0.0 | 0.0 | 0.00 | 0.00 | 0.00 | 70 | 1014.3 | |
| 20260509184015 | 17 | 0.0 | 0.0 | 0.00 | 0.00 | 0.00 | 69 | 1014.3 | |
| 20260509183520 | 17 | 0.0 | 0.0 | 0.00 | 0.00 | 0.00 | 70 | 1014.3 | |
| 20260509183025 | 18 | 0.0 | 0.0 | 0.00 | 0.00 | 0.00 | 69 | 1014.2 | |
| 20260509182548 | 18 | 0.0 | 0.0 | 0.00 | 0.00 | 0.00 | 66 | 1014.3 | |
| 20260509182023 | 19 | 0.0 | 0.0 | 0.00 | 0.00 | 0.00 | 65 | 1014.3 | |
| 20260509181515 | 20 | 0.0 | 0.0 | 0.00 | 0.00 | 0.00 | 63 | 1014.3 | |
| 20260509181020 | 20 | 0.0 | 0.0 | 0.00 | 0.00 | 0.00 | 60 | 1014.3 | |
| 20260509180555 | 20 | 0.0 | 0.0 | 0.00 | 0.00 | 0.00 | 55 | 1014.2 | |
| 20260509180017 | 20 | 5 | 0.0 | 1.6 | 0.00 | 0.00 | 0.00 | 54 | 1014.2 |
| 20260509175522 | 21 | 0.0 | 0.0 | 0.00 | 0.00 | 0.00 | 55 | 1014.2 | |
| 20260509175015 | 21 | 0.0 | 0.0 | 0.00 | 0.00 | 0.00 | 54 | 1014.2 | |
| 20260509174520 | 21 | 348 | 0.0 | 0.0 | 0.00 | 0.00 | 0.00 | 52 | 1014.2 |
| 20260509174056 | 21 | 25 | 0.0 | 3.2 | 0.00 | 0.00 | 0.00 | 51 | 1014.2 |
| 20260509173518 | 21 | 9 | 0.0 | 3.2 | 0.00 | 0.00 | 0.00 | 51 | 1014.1 |
| 20260509173037 | 21 | 356 | 0.0 | 1.6 | 0.00 | 0.00 | 0.00 | 50 | 1014.1 |
| 20260509172529 | 21 | 12 | 1.6 | 3.2 | 0.00 | 0.00 | 0.00 | 50 | 1014.1 |
| 20260509172022 | 21 | 355 | 0.0 | 1.6 | 0.00 | 0.00 | 0.00 | 50 | 1014.1 |
| 20260509171515 | 21 | 2 | 0.0 | 3.2 | 0.00 | 0.00 | 0.00 | 49 | 1014.1 |
| 20260509171019 | 21 | 32 | 1.6 | 8.0 | 0.00 | 0.00 | 0.00 | 47 | 1014.1 |
| 20260509170525 | 22 | 351 | 0.0 | 1.6 | 0.00 | 0.00 | 0.00 | 47 | 1014.1 |
| 20260509170017 | 22 | 0 | 0.0 | 1.6 | 0.00 | 0.00 | 0.00 | 47 | 1014.1 |
| 20260509165622 | 22 | 316 | 0.0 | 3.2 | 0.00 | 0.00 | 0.00 | 43 | 1014.1 |
| 20260509165015 | 22 | 327 | 0.0 | 3.2 | 0.00 | 0.00 | 0.00 | 43 | 1014.1 |
| 20260509164520 | 22 | 357 | 0.0 | 3.2 | 0.00 | 0.00 | 0.00 | 43 | 1014.1 |
| 20260509164025 | 22 | 317 | 1.6 | 3.2 | 0.00 | 0.00 | 0.00 | 43 | 1014.1 |
| 20260509163518 | 23 | 22 | 1.6 | 3.2 | 0.00 | 0.00 | 0.00 | 42 | 1014.1 |
| 20260509163023 | 23 | 26 | 1.6 | 4.8 | 0.00 | 0.00 | 0.00 | 41 | 1014.2 |
| 20260509162516 | 23 | 20 | 0.0 | 3.2 | 0.00 | 0.00 | 0.00 | 40 | 1014.2 |
| 20260509162021 | 24 | 13 | 1.6 | 4.8 | 0.00 | 0.00 | 0.00 | 40 | 1014.2 |
| 20260509161526 | 24 | 356 | 0.0 | 3.2 | 0.00 | 0.00 | 0.00 | 41 | 1014.2 |
| 20260509161019 | 23 | 0.0 | 0.0 | 0.00 | 0.00 | 0.00 | 43 | 1014.2 | |
| 20260509160525 | 23 | 3 | 0.0 | 3.2 | 0.00 | 0.00 | 0.00 | 44 | 1014.1 |
| 20260509160018 | 23 | 26 | 0.0 | 3.2 | 0.00 | 0.00 | 0.00 | 43 | 1014.1 |
| 20260509155523 | 22 | 14 | 0.0 | 3.2 | 0.00 | 0.00 | 0.00 | 43 | 1014.1 |
| 20260509155046 | 23 | 3 | 0.0 | 3.2 | 0.00 | 0.00 | 0.00 | 43 | 1014.1 |
| 20260509154521 | 23 | 359 | 0.0 | 8.0 | 0.00 | 0.00 | 0.00 | 43 | 1014.1 |
| 20260509154026 | 23 | 26 | 1.6 | 4.8 | 0.00 | 0.00 | 0.00 | 42 | 1014.2 |
| 20260509153519 | 24 | 36 | 3.2 | 8.0 | 0.00 | 0.00 | 0.00 | 41 | 1014.2 |
| 20260509153024 | 25 | 25 | 1.6 | 8.0 | 0.00 | 0.00 | 0.00 | 40 | 1014.2 |
| 20260509152517 | 25 | 11 | 1.6 | 3.2 | 0.00 | 0.00 | 0.00 | 39 | 1014.5 |
| 20260509152022 | 25 | 23 | 1.6 | 8.0 | 0.00 | 0.00 | 0.00 | 39 | 1015.2 |
| 20260509151515 | 25 | 15 | 1.6 | 3.2 | 0.00 | 0.00 | 0.00 | 38 | 1015.3 |
| 20260509151020 | 25 | 356 | 0.0 | 4.8 | 0.00 | 0.00 | 0.00 | 39 | 1015.2 |
| 20260509150525 | 24 | 3 | 0.0 | 3.2 | 0.00 | 0.00 | 0.00 | 40 | 1015.2 |
| 20260509150018 | 24 | 9 | 0.0 | 3.2 | 0.00 | 0.00 | 0.00 | 41 | 1015.2 |
| 20260509145523 | 24 | 18 | 0.0 | 3.2 | 0.00 | 0.00 | 0.00 | 40 | 1015.2 |
| 20260509145016 | 24 | 7 | 0.0 | 4.8 | 0.00 | 0.00 | 0.00 | 40 | 1015.2 |
| 20260509144521 | 24 | 17 | 0.0 | 3.2 | 0.00 | 0.00 | 0.00 | 40 | 1015.2 |
| 20260509144026 | 24 | 16 | 1.6 | 4.8 | 0.00 | 0.00 | 0.00 | 40 | 1015.2 |
| 20260509143519 | 24 | 29 | 1.6 | 8.0 | 0.00 | 0.00 | 0.00 | 40 | 1015.2 |
| 20260509143024 | 24 | 357 | 1.6 | 8.0 | 0.00 | 0.00 | 0.00 | 38 | 1015.2 |
| 20260509142518 | 24 | 333 | 1.6 | 4.8 | 0.00 | 0.00 | 0.00 | 39 | 1015.2 |
| 20260509142023 | 24 | 310 | 1.6 | 3.2 | 0.00 | 0.00 | 0.00 | 39 | 1015.2 |
| 20260509141516 | 24 | 0.0 | 0.0 | 0.00 | 0.00 | 0.00 | 40 | 1015.2 | |
| 20260509141128 | 25 | 20 | 1.6 | 3.2 | 0.00 | 0.00 | 0.00 | 38 | 1015.3 |
| 20260509140526 | 25 | 16 | 1.6 | 4.8 | 0.00 | 0.00 | 0.00 | 38 | 1015.3 |
| 20260509140234 | 25 | 28 | 1.6 | 8.0 | 0.00 | 0.00 | 0.00 | 37 | 1015.3 |
| 20260509135554 | 25 | 32 | 1.6 | 8.0 | 0.00 | 0.00 | 0.00 | 38 | 1015.3 |
| 20260509135018 | 25 | 11 | 1.6 | 3.2 | 0.00 | 0.00 | 0.00 | 38 | 1016.2 |
| 20260509134523 | 25 | 17 | 1.6 | 11.3 | 0.00 | 0.00 | 0.00 | 39 | 1016.3 |
| 20260509134046 | 25 | 358 | 0.0 | 3.2 | 0.00 | 0.00 | 0.00 | 41 | 1016.3 |
| 20260509133551 | 25 | 24 | 1.6 | 4.8 | 0.00 | 0.00 | 0.00 | 39 | 1016.3 |
| 20260509133026 | 25 | 3 | 0.0 | 3.2 | 0.00 | 0.00 | 0.00 | 42 | 1016.4 |
| 20260509132519 | 26 | 23 | 1.6 | 4.8 | 0.00 | 0.00 | 0.00 | 41 | 1016.4 |
| 20260509132024 | 25 | 349 | 0.0 | 3.2 | 0.00 | 0.00 | 0.00 | 41 | 1016.4 |
| 20260509131517 | 25 | 331 | 0.0 | 3.2 | 0.00 | 0.00 | 0.00 | 41 | 1016.3 |
| 20260509131022 | 25 | 1 | 1.6 | 8.0 | 0.00 | 0.00 | 0.00 | 42 | 1016.4 |
| 20260509130515 | 25 | 58 | 0.0 | 4.8 | 0.00 | 0.00 | 0.00 | 44 | 1016.4 |
| 20260509130050 | 24 | 355 | 0.0 | 3.2 | 0.00 | 0.00 | 0.00 | 44 | 1016.4 |
| 20260509125525 | 24 | 352 | 0.0 | 4.8 | 0.00 | 0.00 | 0.00 | 44 | 1016.3 |
| 20260509125018 | 24 | 4 | 0.0 | 3.2 | 0.00 | 0.00 | 0.00 | 45 | 1016.4 |
| 20260509124653 | 24 | 1 | 0.0 | 3.2 | 0.00 | 0.00 | 0.00 | 46 | 1016.4 |
| 20260509124045 | 23 | 2 | 0.0 | 3.2 | 0.00 | 0.00 | 0.00 | 45 | 1016.3 |
| 20260509123520 | 23 | 355 | 0.0 | 1.6 | 0.00 | 0.00 | 0.00 | 47 | 1016.3 |
| 20260509123109 | 23 | 30 | 1.6 | 8.0 | 0.00 | 0.00 | 0.00 | 47 | 1016.4 |
| 20260509122532 | 23 | 29 | 3.2 | 8.0 | 0.00 | 0.00 | 0.00 | 46 | 1016.4 |
| 20260509122024 | 23 | 16 | 1.6 | 8.0 | 0.00 | 0.00 | 0.00 | 47 | 1016.8 |
| 20260509121517 | 23 | 22 | 1.6 | 12.9 | 0.00 | 0.00 | 0.00 | 48 | 1017.4 |
| 20260509121021 | 23 | 358 | 1.6 | 3.2 | 0.00 | 0.00 | 0.00 | 48 | 1017.4 |
| 20260509120526 | 22 | 314 | 1.6 | 3.2 | 0.00 | 0.00 | 0.00 | 49 | 1017.3 |
| 20260509120019 | 22 | 313 | 1.6 | 8.0 | 0.00 | 0.00 | 0.00 | 47 | 1017.4 |
| 20260509115524 | 23 | 85 | 1.6 | 3.2 | 0.00 | 0.00 | 0.00 | 50 | 1017.4 |
| 20260509115016 | 23 | 38 | 0.0 | 8.0 | 0.00 | 0.00 | 0.00 | 48 | 1017.4 |
| 20260509114549 | 23 | 32 | 1.6 | 3.2 | 0.00 | 0.00 | 0.00 | 47 | 1017.4 |
| 20260509114056 | 23 | 35 | 1.6 | 8.0 | 0.00 | 0.00 | 0.00 | 48 | 1017.4 |
| 20260509113519 | 22 | 19 | 1.6 | 3.2 | 0.00 | 0.00 | 0.00 | 49 | 1017.4 |
| 20260509113024 | 22 | 357 | 0.0 | 1.6 | 0.00 | 0.00 | 0.00 | 51 | 1017.4 |
| 20260509112517 | 22 | 21 | 1.6 | 3.2 | 0.00 | 0.00 | 0.00 | 51 | 1017.4 |
| 20260509112022 | 22 | 24 | 1.6 | 4.8 | 0.00 | 0.00 | 0.00 | 52 | 1017.3 |
| 20260509111527 | 22 | 288 | 1.6 | 4.8 | 0.00 | 0.00 | 0.00 | 52 | 1017.3 |
| 20260509111019 | 22 | 318 | 1.6 | 8.0 | 0.00 | 0.00 | 0.00 | 52 | 1017.3 |
| 20260509110538 | 21 | 30 | 1.6 | 6.4 | 0.00 | 0.00 | 0.00 | 53 | 1017.3 |
| 20260509110030 | 22 | 12 | 1.6 | 8.0 | 0.00 | 0.00 | 0.00 | 52 | 1017.4 |
| 20260509105522 | 22 | 30 | 3.2 | 6.4 | 0.00 | 0.00 | 0.00 | 51 | 1017.4 |
| 20260509105015 | 22 | 29 | 1.6 | 8.0 | 0.00 | 0.00 | 0.00 | 53 | 1018.1 |
| 20260509104519 | 22 | 44 | 0.0 | 4.8 | 0.00 | 0.00 | 0.00 | 54 | 1018.4 |
| 20260509104038 | 22 | 37 | 1.6 | 9.7 | 0.00 | 0.00 | 0.00 | 52 | 1018.4 |
| 20260509103530 | 21 | 359 | 0.0 | 3.2 | 0.00 | 0.00 | 0.00 | 54 | 1018.3 |
| 20260509103024 | 21 | 13 | 0.0 | 3.2 | 0.00 | 0.00 | 0.00 | 55 | 1018.3 |
| 20260509102517 | 21 | 21 | 1.6 | 4.8 | 0.00 | 0.00 | 0.00 | 54 | 1018.3 |
| 20260509102021 | 20 | 7 | 1.6 | 3.2 | 0.00 | 0.00 | 0.00 | 55 | 1018.3 |
| 20260509101526 | 20 | 17 | 1.6 | 4.8 | 0.00 | 0.00 | 0.00 | 56 | 1018.3 |
| 20260509101019 | 21 | 40 | 1.6 | 8.0 | 0.00 | 0.00 | 0.00 | 55 | 1018.3 |
| 20260509100524 | 21 | 9 | 1.6 | 6.4 | 0.00 | 0.00 | 0.00 | 54 | 1018.3 |
| 20260509100017 | 21 | 25 | 1.6 | 9.7 | 0.00 | 0.00 | 0.00 | 56 | 1018.3 |
| 20260509095522 | 21 | 21 | 0.0 | 8.0 | 0.00 | 0.00 | 0.00 | 56 | 1018.3 |
| 20260509095057 | 20 | 20 | 1.6 | 8.0 | 0.00 | 0.00 | 0.00 | 57 | 1018.3 |
| 20260509094520 | 20 | 7 | 1.6 | 3.2 | 0.00 | 0.00 | 0.00 | 56 | 1018.3 |
| 20260509094025 | 20 | 12 | 1.6 | 8.0 | 0.00 | 0.00 | 0.00 | 57 | 1018.3 |
| 20260509093548 | 20 | 180 | 3.2 | 8.0 | 0.00 | 0.00 | 0.00 | 57 | 1018.3 |
| 20260509093023 | 20 | 328 | 1.6 | 9.7 | 0.00 | 0.00 | 0.00 | 57 | 1018.4 |
| 20260509092516 | 20 | 6 | 1.6 | 8.0 | 0.00 | 0.00 | 0.00 | 57 | 1018.4 |
| 20260509092021 | 20 | 15 | 1.6 | 4.8 | 0.00 | 0.00 | 0.00 | 58 | 1018.4 |
| 20260509091526 | 19 | 25 | 3.2 | 11.3 | 0.00 | 0.00 | 0.00 | 58 | 1018.3 |
| 20260509091049 | 19 | 0 | 1.6 | 3.2 | 0.00 | 0.00 | 0.00 | 60 | 1018.3 |
| 20260509090554 | 19 | 27 | 3.2 | 8.0 | 0.00 | 0.00 | 0.00 | 59 | 1018.3 |
| 20260509090016 | 18 | 45 | 1.6 | 8.0 | 0.00 | 0.00 | 0.00 | 58 | 1018.3 |
| 20260509085521 | 18 | 2 | 1.6 | 8.0 | 0.00 | 0.00 | 0.00 | 60 | 1018.3 |
| 20260509085056 | 18 | 17 | 1.6 | 12.9 | 0.00 | 0.00 | 0.00 | 60 | 1018.3 |
| 20260509084519 | 18 | 36 | 1.6 | 8.0 | 0.00 | 0.00 | 0.00 | 60 | 1018.3 |
| 20260509084054 | 18 | 18 | 3.2 | 8.0 | 0.00 | 0.00 | 0.00 | 60 | 1018.3 |
| 20260509083516 | 18 | 22 | 1.6 | 12.9 | 0.00 | 0.00 | 0.00 | 61 | 1018.3 |
| 20260509083021 | 18 | 11 | 1.6 | 8.0 | 0.00 | 0.00 | 0.00 | 61 | 1018.3 |
| 20260509082526 | 18 | 24 | 1.6 | 6.4 | 0.00 | 0.00 | 0.00 | 62 | 1018.3 |
| 20260509082019 | 17 | 10 | 1.6 | 3.2 | 0.00 | 0.00 | 0.00 | 63 | 1018.3 |
| 20260509081525 | 17 | 40 | 1.6 | 4.8 | 0.00 | 0.00 | 0.00 | 63 | 1019.3 |
| 20260509081017 | 17 | 9 | 1.6 | 4.8 | 0.00 | 0.00 | 0.00 | 63 | 1019.3 |
| 20260509080522 | 17 | 24 | 1.6 | 4.8 | 0.00 | 0.00 | 0.00 | 64 | 1019.3 |
| 20260509080015 | 16 | 22 | 1.6 | 4.8 | 0.00 | 0.00 | 0.00 | 65 | 1019.3 |
| 20260509075550 | 16 | 56 | 1.6 | 8.0 | 0.00 | 0.00 | 0.00 | 66 | 1019.3 |
| 20260509075054 | 16 | 32 | 1.6 | 8.0 | 0.00 | 0.00 | 0.00 | 66 | 1019.3 |
| 20260509074547 | 16 | 20 | 1.6 | 4.8 | 0.00 | 0.00 | 0.00 | 66 | 1018.4 |
| 20260509074022 | 16 | 23 | 1.6 | 8.0 | 0.00 | 0.00 | 0.00 | 67 | 1018.3 |
| 20260509073545 | 15 | 35 | 1.6 | 4.8 | 0.00 | 0.00 | 0.00 | 68 | 1018.2 |
| 20260509073019 | 15 | 36 | 1.6 | 8.0 | 0.00 | 0.00 | 0.00 | 69 | 1018.3 |
| 20260509072524 | 15 | 39 | 3.2 | 8.0 | 0.00 | 0.00 | 0.00 | 69 | 1018.3 |
| 20260509072017 | 15 | 36 | 1.6 | 9.7 | 0.00 | 0.00 | 0.00 | 69 | 1018.3 |
| 20260509071521 | 15 | 33 | 1.6 | 8.0 | 0.00 | 0.00 | 0.00 | 70 | 1018.3 |
| 20260509071039 | 15 | 35 | 1.6 | 4.8 | 0.00 | 0.00 | 0.00 | 69 | 1018.3 |
| 20260509070631 | 15 | 5 | 1.6 | 3.2 | 0.00 | 0.00 | 0.00 | 69 | 1018.3 |
| 20260509070051 | 15 | 5 | 0.0 | 1.6 | 0.00 | 0.00 | 0.00 | 70 | 1019.3 |
| 20260509065556 | 15 | 17 | 1.6 | 4.8 | 0.00 | 0.00 | 0.00 | 71 | 1019.3 |
| 20260509065101 | 15 | 12 | 1.6 | 3.2 | 0.00 | 0.00 | 0.00 | 69 | 1019.3 |
| 20260509064522 | 15 | 0.0 | 0.0 | 0.00 | 0.00 | 0.00 | 68 | 1019.3 | |
| 20260509064350 | 15 | 0.0 | 0.0 | 0.00 | 0.00 | 0.00 | 70 | 1019.3 | |
| 20260509063548 | 14 | 0.0 | 0.0 | 0.00 | 0.00 | 0.00 | 73 | 1019.3 | |
| 20260509063023 | 14 | 0.0 | 0.0 | 0.00 | 0.00 | 0.00 | 72 | 1019.3 | |
| 20260509062858 | 14 | 0.0 | 0.0 | 0.00 | 0.00 | 0.00 | 74 | 1018.3 | |
| 20260509062019 | 14 | 0.0 | 0.0 | 0.00 | 0.00 | 0.00 | 73 | 1018.3 | |
| 20260509062006 | 13 | 0.0 | 0.0 | 0.00 | 0.00 | 0.00 | 77 | 1018.3 | |
| 20260509061026 | 12 | 0.0 | 0.0 | 0.00 | 0.00 | 0.00 | 78 | 1018.2 | |
| 20260509060517 | 12 | 0.0 | 0.0 | 0.00 | 0.00 | 0.00 | 82 | 1018.2 | |
| 20260509060021 | 12 | 0.0 | 0.0 | 0.00 | 0.00 | 0.00 | 82 | 1018.5 | |
| 20260509055524 | 11 | 0.0 | 0.0 | 0.00 | 0.00 | 0.00 | 84 | 1019.2 | |
| 20260509055016 | 10 | 0.0 | 0.0 | 0.00 | 0.00 | 0.00 | 89 | 1019.2 | |
| 20260509054620 | 10 | 0.0 | 0.0 | 0.00 | 0.00 | 0.00 | 93 | 1018.9 | |
| 20260509054054 | 8 | 0.0 | 0.0 | 0.00 | 0.00 | 0.00 | 97 | 1018.1 | |
| 20260509053515 | 8 | 0.0 | 0.0 | 0.00 | 0.00 | 0.00 | 99 | 1018.1 | |
| 20260509053019 | 7 | 0.0 | 0.0 | 0.00 | 0.00 | 0.00 | 99 | 1018.1 | |
| 20260509052523 | 7 | 0.0 | 0.0 | 0.00 | 0.00 | 0.00 | 99 | 1018.1 | |
| 20260509052027 | 6 | 0.0 | 0.0 | 0.00 | 0.00 | 0.00 | 99 | 1018.0 | |
| 20260509051518 | 6 | 0.0 | 0.0 | 0.00 | 0.00 | 0.00 | 99 | 1018.0 | |
| 20260509051022 | 6 | 0.0 | 0.0 | 0.00 | 0.00 | 0.00 | 99 | 1018.0 | |
| 20260509050526 | 5 | 0.0 | 0.0 | 0.00 | 0.00 | 0.00 | 99 | 1017.9 | |
| 20260509050018 | 5 | 0.0 | 0.0 | 0.00 | 0.00 | 0.00 | 99 | 1018.0 | |
| 20260509045522 | 5 | 0.0 | 0.0 | 0.00 | 0.00 | 0.00 | 99 | 1018.0 | |
| 20260509045026 | 5 | 0.0 | 0.0 | 0.00 | 0.00 | 0.00 | 99 | 1017.9 | |
| 20260509044518 | 5 | 0.0 | 0.0 | 0.00 | 0.00 | 0.00 | 99 | 1017.9 | |
| 20260509044021 | 5 | 0.0 | 0.0 | 0.00 | 0.00 | 0.00 | 99 | 1017.9 | |
| 20260509043525 | 5 | 0.0 | 0.0 | 0.00 | 0.00 | 0.00 | 99 | 1017.9 | |
| 20260509043017 | 5 | 0.0 | 0.0 | 0.00 | 0.00 | 0.00 | 99 | 1017.9 | |
| 20260509042521 | 5 | 0.0 | 0.0 | 0.00 | 0.00 | 0.00 | 99 | 1017.9 | |
| 20260509042025 | 5 | 0.0 | 0.0 | 0.00 | 0.00 | 0.00 | 99 | 1017.9 | |
| 20260509041729 | 5 | 0.0 | 0.0 | 0.00 | 0.00 | 0.00 | 99 | 1017.9 | |
| 20260509041021 | 5 | 0.0 | 0.0 | 0.00 | 0.00 | 0.00 | 99 | 1017.9 | |
| 20260509040802 | 5 | 0.0 | 0.0 | 0.00 | 0.00 | 0.00 | 99 | 1017.9 | |
| 20260509040016 | 5 | 0.0 | 0.0 | 0.00 | 0.00 | 0.00 | 99 | 1018.0 | |
| 20260509035520 | 5 | 0.0 | 0.0 | 0.00 | 0.00 | 0.00 | 99 | 1018.0 | |
| 20260509035024 | 5 | 0.0 | 0.0 | 0.00 | 0.00 | 0.00 | 99 | 1018.0 | |
| 20260509034515 | 5 | 0.0 | 0.0 | 0.00 | 0.00 | 0.00 | 99 | 1018.0 | |
| 20260509034019 | 5 | 0.0 | 0.0 | 0.00 | 0.00 | 0.00 | 99 | 1018.0 | |
| 20260509033523 | 5 | 0.0 | 0.0 | 0.00 | 0.00 | 0.00 | 99 | 1018.0 | |
| 20260509033027 | 5 | 0.0 | 0.0 | 0.00 | 0.00 | 0.00 | 99 | 1018.0 | |
| 20260509032518 | 5 | 0.0 | 0.0 | 0.00 | 0.00 | 0.00 | 99 | 1018.0 | |
| 20260509032023 | 5 | 0.0 | 0.0 | 0.00 | 0.00 | 0.00 | 99 | 1018.0 | |
| 20260509031527 | 5 | 0.0 | 0.0 | 0.00 | 0.00 | 0.00 | 99 | 1018.0 | |
| 20260509031019 | 5 | 0.0 | 0.0 | 0.00 | 0.00 | 0.00 | 99 | 1018.0 | |
| 20260509030523 | 5 | 0.0 | 0.0 | 0.00 | 0.00 | 0.00 | 99 | 1018.0 | |
| 20260509030015 | 5 | 0.0 | 0.0 | 0.00 | 0.00 | 0.00 | 99 | 1018.0 | |
| 20260509025519 | 5 | 0.0 | 0.0 | 0.00 | 0.00 | 0.00 | 99 | 1018.0 | |
| 20260509025023 | 5 | 0.0 | 0.0 | 0.00 | 0.00 | 0.00 | 99 | 1018.0 | |
| 20260509024516 | 5 | 0.0 | 0.0 | 0.00 | 0.00 | 0.00 | 99 | 1018.0 | |
| 20260509024019 | 5 | 0.0 | 0.0 | 0.00 | 0.00 | 0.00 | 99 | 1018.0 | |
| 20260509023524 | 5 | 0.0 | 0.0 | 0.00 | 0.00 | 0.00 | 98 | 1018.0 | |
| 20260509023016 | 6 | 0.0 | 0.0 | 0.00 | 0.00 | 0.00 | 98 | 1018.0 | |
| 20260509022520 | 6 | 0.0 | 0.0 | 0.00 | 0.00 | 0.00 | 98 | 1018.0 | |
| 20260509022124 | 6 | 0.0 | 0.0 | 0.00 | 0.00 | 0.00 | 99 | 1018.0 | |
| 20260509021516 | 6 | 0.0 | 0.0 | 0.00 | 0.00 | 0.00 | 98 | 1018.0 | |
| 20260509021033 | 6 | 0.0 | 0.0 | 0.00 | 0.00 | 0.00 | 98 | 1018.0 | |
| 20260509020525 | 6 | 0.0 | 0.0 | 0.00 | 0.00 | 0.00 | 98 | 1018.0 | |
| 20260509020017 | 6 | 0.0 | 0.0 | 0.00 | 0.00 | 0.00 | 99 | 1018.1 | |
| 20260509015520 | 6 | 0.0 | 0.0 | 0.00 | 0.00 | 0.00 | 99 | 1018.1 | |
| 20260509015025 | 6 | 0.0 | 0.0 | 0.00 | 0.00 | 0.00 | 98 | 1018.1 | |
| 20260509014516 | 6 | 0.0 | 0.0 | 0.00 | 0.00 | 0.00 | 97 | 1018.1 | |
| 20260509014021 | 6 | 0.0 | 0.0 | 0.00 | 0.00 | 0.00 | 97 | 1018.1 | |
| 20260509013525 | 6 | 0.0 | 0.0 | 0.00 | 0.00 | 0.00 | 96 | 1018.1 | |
| 20260509013017 | 6 | 0.0 | 0.0 | 0.00 | 0.00 | 0.00 | 96 | 1018.1 | |
| 20260509012521 | 7 | 0.0 | 0.0 | 0.00 | 0.00 | 0.00 | 96 | 1018.0 | |
| 20260509012025 | 7 | 0.0 | 0.0 | 0.00 | 0.00 | 0.00 | 96 | 1018.0 | |
| 20260509011517 | 7 | 0.0 | 0.0 | 0.00 | 0.00 | 0.00 | 97 | 1018.0 | |
| 20260509011021 | 7 | 0.0 | 0.0 | 0.00 | 0.00 | 0.00 | 97 | 1018.0 | |
| 20260509010525 | 7 | 0.0 | 0.0 | 0.00 | 0.00 | 0.00 | 96 | 1018.0 | |
| 20260509010017 | 7 | 0.0 | 0.0 | 0.00 | 0.00 | 0.00 | 94 | 1018.0 | |
| 20260509005521 | 7 | 0.0 | 0.0 | 0.00 | 0.00 | 0.00 | 94 | 1018.0 | |
| 20260509005025 | 7 | 0.0 | 0.0 | 0.00 | 0.00 | 0.00 | 95 | 1018.1 | |
| 20260509004547 | 7 | 0.0 | 0.0 | 0.00 | 0.00 | 0.00 | 95 | 1018.1 | |
| 20260509004021 | 7 | 0.0 | 0.0 | 0.00 | 0.00 | 0.00 | 95 | 1018.1 | |
| 20260509003555 | 7 | 0.0 | 0.0 | 0.00 | 0.00 | 0.00 | 95 | 1018.1 | |
| 20260509003017 | 7 | 0.0 | 0.0 | 0.00 | 0.00 | 0.00 | 95 | 1018.1 | |
| 20260509002521 | 7 | 0.0 | 0.0 | 0.00 | 0.00 | 0.00 | 94 | 1018.1 | |
| 20260509002026 | 7 | 0.0 | 0.0 | 0.00 | 0.00 | 0.00 | 93 | 1018.1 | |
| 20260509001518 | 8 | 0.0 | 0.0 | 0.00 | 0.00 | 0.00 | 91 | 1018.1 | |
| 20260509001022 | 8 | 0.0 | 0.0 | 0.00 | 0.00 | 0.00 | 91 | 1018.1 | |
| 20260509000526 | 8 | 0.0 | 0.0 | 0.00 | 0.00 | 0.00 | 91 | 1018.1 | |
| 20260509000018 | 8 | 0.0 | 0.0 | 0.00 | 0.00 | 0.00 | 91 | 1018.1 | |
| 20260508235522 | 8 | 0.0 | 0.0 | 0.00 | 0.00 | 0.00 | 89 | 1018.1 | |
| 20260508235015 | 8 | 0.0 | 0.0 | 0.00 | 0.00 | 0.00 | 89 | 1018.4 | |
| 20260508234519 | 9 | 0.0 | 0.0 | 0.00 | 0.00 | 0.00 | 89 | 1019.2 | |
| 20260508234024 | 9 | 0.0 | 0.0 | 0.00 | 0.00 | 0.00 | 88 | 1019.2 | |
| 20260508233545 | 9 | 0.0 | 0.0 | 0.00 | 0.00 | 0.00 | 89 | 1019.2 | |
| 20260508233050 | 9 | 0.0 | 0.0 | 0.00 | 0.00 | 0.00 | 89 | 1019.2 | |
| 20260508232524 | 9 | 0.0 | 0.0 | 0.00 | 0.00 | 0.00 | 90 | 1019.2 | |
| 20260508232016 | 9 | 0.0 | 0.0 | 0.00 | 0.00 | 0.00 | 89 | 1019.0 | |
| 20260508231521 | 9 | 0.0 | 0.0 | 0.00 | 0.00 | 0.00 | 89 | 1018.2 | |
| 20260508231025 | 9 | 0.0 | 0.0 | 0.00 | 0.00 | 0.00 | 89 | 1018.2 | |
| 20260508230517 | 9 | 0.0 | 0.0 | 0.00 | 0.00 | 0.00 | 89 | 1018.2 | |
| 20260508230034 | 9 | 0.0 | 0.0 | 0.00 | 0.00 | 0.00 | 90 | 1018.2 | |
| 20260508225526 | 9 | 0.0 | 0.0 | 0.00 | 0.00 | 0.00 | 90 | 1018.1 | |
| 20260508225018 | 9 | 0.0 | 0.0 | 0.00 | 0.00 | 0.00 | 89 | 1018.1 | |
| 20260508224534 | 10 | 0.0 | 0.0 | 0.00 | 0.00 | 0.00 | 89 | 1018.1 | |
| 20260508224026 | 10 | 0.0 | 0.0 | 0.00 | 0.00 | 0.00 | 89 | 1018.2 | |
| 20260508223518 | 10 | 0.0 | 0.0 | 0.00 | 0.00 | 0.00 | 89 | 1018.2 | |
| 20260508223121 | 10 | 0.0 | 0.0 | 0.00 | 0.00 | 0.00 | 89 | 1018.2 | |
| 20260508222556 | 10 | 0.0 | 0.0 | 0.00 | 0.00 | 0.00 | 88 | 1018.1 | |
| 20260508222048 | 10 | 0.0 | 0.0 | 0.00 | 0.00 | 0.00 | 88 | 1018.1 | |
| 20260508221522 | 10 | 0.0 | 0.0 | 0.00 | 0.00 | 0.00 | 88 | 1018.1 | |
| 20260508221027 | 10 | 0.0 | 0.0 | 0.00 | 0.00 | 0.00 | 87 | 1018.1 | |
| 20260508220519 | 10 | 0.0 | 0.0 | 0.00 | 0.00 | 0.00 | 87 | 1018.1 | |
| 20260508220023 | 10 | 0.0 | 0.0 | 0.00 | 0.00 | 0.00 | 87 | 1018.1 | |
| 20260508215615 | 10 | 0.0 | 0.0 | 0.00 | 0.00 | 0.00 | 87 | 1018.1 | |
| 20260508215508 | 10 | 0.0 | 0.0 | 0.00 | 0.00 | 0.00 | 86 | 1018.1 | |
| 20260508214555 | 10 | 0.0 | 0.0 | 0.00 | 0.00 | 0.00 | 85 | 1018.1 | |
| 20260508214017 | 10 | 0.0 | 0.0 | 0.00 | 0.00 | 0.00 | 86 | 1018.1 | |
| 20260508213521 | 10 | 0.0 | 0.0 | 0.00 | 0.00 | 0.00 | 85 | 1018.1 | |
| 20260508213039 | 10 | 0.0 | 0.0 | 0.00 | 0.00 | 0.00 | 84 | 1018.1 | |
| 20260508212531 | 11 | 0.0 | 0.0 | 0.00 | 0.00 | 0.00 | 82 | 1018.2 | |
| 20260508212052 | 11 | 0.0 | 0.0 | 0.00 | 0.00 | 0.00 | 83 | 1018.1 | |
| 20260508211527 | 11 | 0.0 | 0.0 | 0.00 | 0.00 | 0.00 | 82 | 1018.1 | |
| 20260508211130 | 11 | 0.0 | 0.0 | 0.00 | 0.00 | 0.00 | 80 | 1018.1 | |
| 20260508210524 | 11 | 0.0 | 0.0 | 0.00 | 0.00 | 0.00 | 79 | 1018.1 | |
| 20260508210016 | 12 | 0.0 | 0.0 | 0.00 | 0.00 | 0.00 | 78 | 1018.1 | |
| 20260508205620 | 12 | 355 | 0.0 | 1.6 | 0.00 | 0.00 | 0.00 | 77 | 1018.2 |
| 20260508205025 | 12 | 0.0 | 0.0 | 0.00 | 0.00 | 0.00 | 78 | 1018.2 | |
| 20260508204517 | 12 | 0.0 | 0.0 | 0.00 | 0.00 | 0.00 | 77 | 1018.2 | |
| 20260508204052 | 12 | 0.0 | 0.0 | 0.00 | 0.00 | 0.00 | 76 | 1018.2 | |
| 20260508203527 | 12 | 0.0 | 0.0 | 0.00 | 0.00 | 0.00 | 74 | 1018.2 | |
| 20260508203019 | 12 | 0.0 | 0.0 | 0.00 | 0.00 | 0.00 | 73 | 1018.2 | |
| 20260508202523 | 13 | 0.0 | 0.0 | 0.00 | 0.00 | 0.00 | 73 | 1018.2 | |
| 20260508202016 | 13 | 0.0 | 0.0 | 0.00 | 0.00 | 0.00 | 73 | 1018.1 | |
| 20260508201521 | 13 | 0 | 0.0 | 3.2 | 0.00 | 0.00 | 0.00 | 73 | 1018.1 |
| 20260508201038 | 13 | 0.0 | 0.0 | 0.00 | 0.00 | 0.00 | 74 | 1018.1 | |
| 20260508200600 | 13 | 0.0 | 0.0 | 0.00 | 0.00 | 0.00 | 74 | 1018.1 | |
| 20260508200023 | 13 | 0.0 | 0.0 | 0.00 | 0.00 | 0.00 | 72 | 1018.1 | |
| 20260508195515 | 13 | 0.0 | 0.0 | 0.00 | 0.00 | 0.00 | 71 | 1018.1 | |
| 20260508195049 | 13 | 0.0 | 0.0 | 0.00 | 0.00 | 0.00 | 71 | 1018.1 | |
| 20260508194524 | 13 | 0.0 | 0.0 | 0.00 | 0.00 | 0.00 | 71 | 1017.5 | |
| 20260508194016 | 13 | 0.0 | 0.0 | 0.00 | 0.00 | 0.00 | 70 | 1017.1 | |
| 20260508193621 | 13 | 355 | 0.0 | 0.0 | 0.00 | 0.00 | 0.00 | 70 | 1017.1 |
| 20260508193025 | 13 | 4 | 0.0 | 4.8 | 0.00 | 0.00 | 0.00 | 70 | 1017.1 |
| 20260508192518 | 13 | 0.0 | 0.0 | 0.00 | 0.00 | 0.00 | 70 | 1017.1 | |
| 20260508192022 | 14 | 0.0 | 0.0 | 0.00 | 0.00 | 0.00 | 71 | 1017.1 | |
| 20260508191527 | 14 | 0.0 | 0.0 | 0.00 | 0.00 | 0.00 | 69 | 1017.1 | |
| 20260508191049 | 14 | 0.0 | 0.0 | 0.00 | 0.00 | 0.00 | 69 | 1017.1 | |
| 20260508190553 | 15 | 0.0 | 0.0 | 0.00 | 0.00 | 0.00 | 68 | 1017.1 | |
| 20260508190016 | 15 | 0.0 | 0.0 | 0.00 | 0.00 | 0.00 | 67 | 1017.1 | |
| 20260508185520 | 15 | 0.0 | 0.0 | 0.00 | 0.00 | 0.00 | 67 | 1017.1 | |
| 20260508185025 | 15 | 0.0 | 0.0 | 0.00 | 0.00 | 0.00 | 65 | 1017.1 |